Port Aransas, TX

11:29 AM CDT on June 23, 2017 (GMT -0500)
Port Aransas

Weather History for KRAS - September, 2013

Change the Weather History Date:

Wednesday, September 11, 2013

  Actual Average (KNGP) Record (KNGP)
Temperature  
Mean Temperature 82 °F -  
Max Temperature 88 °F 87 °F 93 °F (2000)
Min Temperature 76 °F 74 °F 70 °F (2011)
Cooling Degree Days 17    
Growing Degree Days 32 (Base 50)    
Moisture  
Dew Point 75 °F    
Average Humidity 74    
Maximum Humidity 90    
Minimum Humidity 62    
Precipitation  
Precipitation 0.24 in - - ()
Sea Level Pressure  
Sea Level Pressure 29.99 in    
Wind  
Wind Speed 10 mph (East)    
Max Wind Speed 18 mph    
Max Gust Speed 26 mph    
Visibility 10 miles    
Events Rain    
Averages and records for this station are not official NWS values.
T = Trace of Precipitation, MM = Missing Value Source: NWS Daily Summary

Daily Weather History Graph

Daily Weather History Graph

Search for Another Location

Airport or City:

Trip Planner

Search our weather history database for the weather conditions in past years. The results will help you decide how hot, cold, wet, or windy it might be!

Date:

Astronomy

Sep. 11, 2013 Rise Set
Actual Time 7:11 AM CDT 7:37 PM CDT
Civil Twilight 6:48 AM CDT 8:00 PM CDT
Nautical Twilight 6:20 AM CDT 8:28 PM CDT
Astronomical Twilight 5:52 AM CDT 8:56 PM CDT
Moon 1:08 PM CDT (9/11) No Moon Set
Length of Visible Light 13h 12m
Length of Day
12h 25m
Waxing Crescent, 39% of the Moon is Illuminated
Sep 11
Waxing Crescent
Sep 12
First Quarter
Sep 19
Full
Sep 26
Last Quarter
Oct 4
New

Hourly Weather History & Observations

Time (CDT) Temp. Heat Index Dew Point Humidity Pressure Visibility Wind Dir Wind Speed Gust Speed Precip Events Conditions
12:15 AM 82.4 °F 88.4 °F 73.8 °F 75% 29.99 in 10.0 mi ESE 11.5 mph - N/A   Clear
12:35 AM 82.4 °F 88.7 °F 74.3 °F 76% 29.99 in 10.0 mi ESE 8.1 mph - N/A   Scattered Clouds
12:55 AM 82.4 °F 89.2 °F 74.8 °F 78% 29.99 in 10.0 mi ESE 8.1 mph - N/A   Scattered Clouds
1:15 AM 82.4 °F 88.7 °F 74.3 °F 76% 29.98 in 10.0 mi ESE 9.2 mph - N/A   Scattered Clouds
1:35 AM 82.4 °F 88.4 °F 73.8 °F 75% 29.98 in 10.0 mi ESE 6.9 mph - N/A   Scattered Clouds
1:55 AM 82.2 °F 88.3 °F 74.1 °F 76% 29.99 in 10.0 mi ESE 8.1 mph - N/A   Scattered Clouds
2:15 AM 82.2 °F 88.5 °F 74.3 °F 77% 29.98 in 10.0 mi ESE 8.1 mph - N/A   Scattered Clouds
2:35 AM 82.2 °F 88.5 °F 74.3 °F 77% 29.98 in 10.0 mi ESE 8.1 mph - N/A   Scattered Clouds
2:55 AM 82.4 °F 88.4 °F 73.8 °F 75% 29.98 in 10.0 mi ESE 9.2 mph - N/A   Clear
3:15 AM 81.9 °F 88.0 °F 74.3 °F 78% 29.97 in 10.0 mi ESE 6.9 mph - N/A   Scattered Clouds
3:35 AM 81.9 °F 88.0 °F 74.3 °F 78% 29.97 in 10.0 mi SE 6.9 mph - N/A   Scattered Clouds
3:55 AM 81.9 °F 87.7 °F 73.9 °F 77% 29.97 in 10.0 mi ESE 6.9 mph - N/A   Clear
4:15 AM 81.7 °F 87.6 °F 74.1 °F 78% 29.97 in 10.0 mi ESE 5.8 mph - N/A   Scattered Clouds
4:35 AM 81.9 °F 87.5 °F 73.6 °F 76% 29.97 in 10.0 mi ESE 8.1 mph - N/A   Scattered Clouds
4:55 AM 81.9 °F 88.0 °F 74.3 °F 78% 29.97 in 10.0 mi ESE 9.2 mph - N/A   Scattered Clouds
5:15 AM 81.5 °F 87.2 °F 73.9 °F 78% 29.97 in 10.0 mi ESE 5.8 mph - N/A   Clear
5:35 AM 81.3 °F 87.0 °F 74.1 °F 79% 29.97 in 10.0 mi ESE 6.9 mph - N/A   Clear
5:55 AM 81.7 °F 87.6 °F 74.1 °F 78% 29.97 in 10.0 mi East 6.9 mph - N/A   Clear
6:15 AM 81.0 °F 86.5 °F 74.7 °F 81% 29.98 in 10.0 mi ESE 8.1 mph - N/A   Clear
6:35 AM 81.3 °F 86.8 °F 73.9 °F 78% 29.98 in 10.0 mi ESE 9.2 mph - N/A   Clear
6:55 AM 80.8 °F 85.4 °F 72.9 °F 77% 29.98 in 10.0 mi ESE 9.2 mph - N/A   Scattered Clouds
7:15 AM 80.6 °F 84.9 °F 72.5 °F 76% 29.99 in 10.0 mi East 9.2 mph - N/A   Scattered Clouds
7:35 AM 80.6 °F 85.7 °F 74.3 °F 81% 29.99 in 10.0 mi East 6.9 mph - N/A   Scattered Clouds
7:55 AM 80.6 °F 86.0 °F 74.8 °F 83% 29.99 in 10.0 mi East 5.8 mph - N/A   Clear
8:15 AM 77.4 °F - 72.9 °F 86% 30.01 in 2.0 mi ESE 12.7 mph 26.5 mph 0.10 in Rain Heavy Rain
8:35 AM 76.6 °F - 73.4 °F 90% 30.01 in 10.0 mi Calm Calm - 0.24 in Rain Light Rain
8:55 AM 79.2 °F - 74.8 °F 87% 30.01 in 10.0 mi ESE 5.8 mph - 0.24 in   Overcast
9:15 AM 81.3 °F 87.4 °F 75.0 °F 81% 30.02 in 10.0 mi East 4.6 mph - N/A   Mostly Cloudy
9:35 AM 82.4 °F 89.5 °F 75.2 °F 79% 30.03 in 10.0 mi East 6.9 mph - N/A   Scattered Clouds
9:55 AM 83.3 °F 92.4 °F 77.0 °F 81% 30.03 in 10.0 mi East 8.1 mph - N/A   Mostly Cloudy
10:15 AM 83.7 °F 92.7 °F 76.5 °F 79% 30.03 in 10.0 mi ENE 5.8 mph - N/A   Mostly Cloudy
10:35 AM 85.6 °F 95.0 °F 75.7 °F 72% 30.03 in 10.0 mi East 13.8 mph 17.3 mph N/A   Mostly Cloudy
10:55 AM 86.5 °F 96.4 °F 75.6 °F 70% 30.04 in 10.0 mi East 12.7 mph 17.3 mph N/A   Scattered Clouds
11:15 AM 86.4 °F 96.0 °F 75.4 °F 70% 30.04 in 10.0 mi East 13.8 mph 19.6 mph N/A   Scattered Clouds
11:35 AM 87.1 °F 96.8 °F 75.6 °F 68% 30.04 in 10.0 mi East 12.7 mph 19.6 mph N/A   Scattered Clouds
11:55 AM 87.3 °F 97.2 °F 75.6 °F 68% 30.04 in 10.0 mi East 12.7 mph 17.3 mph N/A   Mostly Cloudy
12:15 PM 87.3 °F 97.2 °F 75.6 °F 68% 30.03 in 10.0 mi East 15.0 mph 19.6 mph N/A   Mostly Cloudy
12:35 PM 87.6 °F 97.6 °F 75.6 °F 67% 30.03 in 10.0 mi East 15.0 mph 19.6 mph N/A   Mostly Cloudy
12:55 PM 87.6 °F 97.6 °F 75.4 °F 67% 30.03 in 10.0 mi East 15.0 mph - N/A   Mostly Cloudy
1:15 PM 88.3 °F 97.9 °F 74.8 °F 64% 30.02 in 10.0 mi East 13.8 mph 20.7 mph N/A   Scattered Clouds
1:35 PM 88.0 °F 97.5 °F 74.7 °F 65% 30.02 in 10.0 mi East 13.8 mph 19.6 mph N/A   Scattered Clouds
1:55 PM 88.0 °F 97.5 °F 75.0 °F 65% 30.01 in 10.0 mi East 16.1 mph 20.7 mph N/A   Scattered Clouds
2:15 PM 87.8 °F 98.1 °F 75.6 °F 67% 30.01 in 10.0 mi East 13.8 mph - N/A   Scattered Clouds
2:35 PM 87.8 °F 98.6 °F 76.1 °F 68% 30.01 in 10.0 mi East 13.8 mph 20.7 mph N/A   Scattered Clouds
2:55 PM 88.2 °F 96.4 °F 73.8 °F 62% 30.00 in 10.0 mi East 13.8 mph - N/A   Clear
3:15 PM 88.3 °F 98.4 °F 75.0 °F 65% 29.99 in 10.0 mi ESE 12.7 mph 16.1 mph N/A   Clear
3:35 PM 88.5 °F 99.9 °F 76.1 °F 67% 29.99 in 10.0 mi East 15.0 mph 19.6 mph N/A   Scattered Clouds
3:55 PM 86.5 °F 96.4 °F 75.7 °F 70% 29.98 in 10.0 mi East 12.7 mph 18.4 mph N/A   Scattered Clouds
4:15 PM 87.1 °F 96.8 °F 75.4 °F 68% 29.98 in 10.0 mi East 18.4 mph 23.0 mph N/A   Clear
4:35 PM 86.7 °F 94.1 °F 73.2 °F 64% 29.98 in 10.0 mi East 12.7 mph 23.0 mph N/A   Clear
4:55 PM 86.9 °F 94.5 °F 73.4 °F 64% 29.98 in 10.0 mi ESE 15.0 mph 19.6 mph N/A   Clear
5:15 PM 86.2 °F 93.8 °F 73.6 °F 66% 29.97 in 10.0 mi East 12.7 mph - N/A   Clear
5:35 PM 86.0 °F 94.2 °F 74.5 °F 68% 29.97 in 10.0 mi ESE 11.5 mph 17.3 mph N/A   Clear
5:55 PM 86.5 °F 95.9 °F 75.2 °F 69% 29.97 in 10.0 mi East 11.5 mph 19.6 mph N/A   Scattered Clouds
6:15 PM 85.3 °F 94.6 °F 75.6 °F 73% 29.96 in 10.0 mi East 11.5 mph 16.1 mph N/A   Mostly Cloudy
6:35 PM 84.2 °F 92.6 °F 75.4 °F 75% 29.96 in 10.0 mi East 10.4 mph 16.1 mph N/A   Scattered Clouds
6:55 PM 83.8 °F 91.1 °F 74.5 °F 73% 29.96 in 10.0 mi East 15.0 mph 19.6 mph N/A   Scattered Clouds
7:15 PM 83.8 °F 90.8 °F 74.1 °F 72% 29.96 in 10.0 mi East 13.8 mph 20.7 mph N/A   Scattered Clouds
7:35 PM 83.5 °F 91.2 °F 75.0 °F 76% 29.96 in 10.0 mi East 12.7 mph - N/A   Scattered Clouds
7:55 PM 83.3 °F 90.2 °F 74.3 °F 74% 29.97 in 10.0 mi East 12.7 mph - N/A   Scattered Clouds
8:15 PM 83.5 °F 90.6 °F 74.3 °F 74% 29.97 in 10.0 mi East 12.7 mph - N/A   Scattered Clouds
8:35 PM 83.3 °F 89.9 °F 73.8 °F 73% 29.98 in 10.0 mi East 11.5 mph - N/A   Scattered Clouds
8:55 PM 83.3 °F 90.5 °F 74.5 °F 75% 29.98 in 10.0 mi East 11.5 mph - N/A   Scattered Clouds
9:15 PM 83.3 °F 90.2 °F 74.1 °F 74% 29.98 in 10.0 mi East 12.7 mph 17.3 mph N/A   Scattered Clouds
9:35 PM 83.3 °F 90.5 °F 74.5 °F 75% 29.99 in 10.0 mi East 11.5 mph 17.3 mph N/A   Scattered Clouds
9:55 PM 83.3 °F 90.2 °F 74.3 °F 74% 30.00 in 10.0 mi East 12.7 mph 18.4 mph N/A   Scattered Clouds
10:15 PM 83.3 °F 90.2 °F 74.3 °F 74% 30.00 in 10.0 mi East 12.7 mph 17.3 mph N/A   Scattered Clouds
10:35 PM 83.3 °F 89.3 °F 73.2 °F 71% 29.99 in 10.0 mi East 11.5 mph - N/A   Scattered Clouds
10:55 PM 83.3 °F 89.6 °F 73.4 °F 72% 30.00 in 10.0 mi East 11.5 mph - N/A   Scattered Clouds
11:15 PM 83.3 °F 89.9 °F 73.9 °F 73% 29.99 in 10.0 mi East 12.7 mph 16.1 mph N/A   Scattered Clouds
11:35 PM 82.8 °F 89.5 °F 74.5 °F 76% 29.99 in 10.0 mi East 11.5 mph - N/A   Scattered Clouds
11:55 PM 82.8 °F 89.0 °F 73.6 °F 74% 29.98 in 10.0 mi East 11.5 mph - N/A   Scattered Clouds